Regional Weather Roundup
Issued by NWS

Home | Current Version | Previous Version | Graphics & Text | Print | Product List | Glossary Off
Versions: 1 2 3 4 5 6 7 8 9 10 11 12 13 14 15 16 17 18 19 20 21 22 23 24 25 26 27 28 29 30 31 32 33 34 35 36 37 38 39 40 41 42 43 44 45 46 47 48 49 50

000
ASUS43 KDTX 240501
RWRMI
MICHIGAN HOURLY REGIONAL WEATHER ROUNDUP
NATIONAL WEATHER SERVICE DETROIT/PONTIAC MI
100 AM EDT FRI MAR 24 2017

NOTE: "FAIR" INDICATES FEW OR NO CLOUDS BELOW 12,000 FEET WITH NO
SIGNIFICANT WEATHER AND/OR OBSTRUCTION TO VISIBILITY.

MIZ047>049-052>055-059>063-066>070-074>076-081>083-240600-
SOUTHEAST LOWER MICHIGAN

CITY           SKY/WX    TMP DP  RH WIND       PRES   REMARKS
ADRIAN         LGT RAIN  37  33  85 SE7       30.15F WCI  32
ALMA           LGT RAIN  37  33  85 S8G18     30.06F WCI  30
ANN ARBOR      LGT RAIN  36  33  89 S8        30.14F WCI  30
BAD AXE        CLOUDY    35  20  56 S8        30.13F WCI  28
CARO           CLOUDY    37  24  60 SE7       30.11F WCI  31
DETROIT CITY   RAIN      36  32  85 SE6       30.16F FOG     WCI  31
DETROIT        RAIN      37  33  85 SE7       30.16F FOG     WCI  32
FLINT          CLOUDY    37  30  75 S10       30.11F WCI  30
GROSSE ILE     LGT SNOW  37  32  82 S6        30.17F WCI  33
HILLSDALE      CLOUDY    37  34  87 SE8       30.10F WCI  31
HOWELL         LGT RAIN  36  32  85 SE6       30.13S WCI  31

CITY           SKY/WX    TMP DP  RH WIND       PRES   REMARKS
JACKSON        LGT RAIN  37  33  85 S6        30.12F WCI  32
LAMBERTVILLE   MIX PCPN  38  35  86 E3        30.17F
LANSING        LGT RAIN  36  32  85 S13       30.08F FOG     WCI  27
LAPEER         DRIZZLE   36  27  71 S7G17     30.13F WCI  30
MASON          LGT SNOW  37  33  89 CALM      30.13R
MONROE         RAIN      37  36  96 SE5       30.16F WCI  33
MT. CLEMENS    LGT RAIN  34  33  97 SE7       30.15F WCI  28
PONTIAC        LGT RAIN  35  30  82 MISG      30.13F
PORT HOPE        N/A     35  23  61 S7        30.13F WCI  29
PORT HURON     DRIZZLE   36  23  60 S9        30.16F WCI  29
TRI CITIES     CLOUDY    38  27  64 SE6       30.08F WCI  33
MIDLAND        CLOUDY    40  23  51 S7        30.09R
TROY           LGT SNOW  36  31  83 SE3       30.16F
SAGINAW HB     CLOUDY    37  27  65 SE10      30.07F WCI  30
$$
MIZ043>046-050>051-056>058-064>065-071>073-077>080-240600-
SOUTHWEST LOWER MICHIGAN

CITY           SKY/WX    TMP DP  RH WIND       PRES   REMARKS
BATTLE CREEK   LGT RAIN  41  37  86 SE6       30.11R
BENTON HARBOR  CLOUDY    43  36  76 E6        30.06F
BIG RAPIDS     CLOUDY    36  31  82 SE5       30.02F WCI  32
COLDWATER      LGT RAIN  42  35  74 SE5       30.11S
FREMONT        DRIZZLE   39  34  82 S5        30.03F
HOLLAND        CLOUDY    43  37  79 S14G22    30.00F
GRAND RAPIDS   LGT RAIN  39  35  86 S16       30.03F WCI  30
IONIA          LGT RAIN  36  33  87 S17G25    30.01F WCI  26
KALAMAZOO      CLOUDY    41  36  82 SE6       30.09S
LUDINGTON      CLOUDY    39  33  78 SE8       29.97F WCI  34
MARSHALL       MIX PCPN  40  37  91 CALM      30.13R
MOUNT PLEASANT CLOUDY    38  29  69 S7        30.07S WCI  32
MUSKEGON       LGT RAIN  41  36  82 S14G22    29.99F
SOUTH HAVEN    CLOUDY    40  37  91 E7        30.05F WCI  35
$$
MIZ016>042-240600-
NORTHERN LOWER MICHIGAN

CITY           SKY/WX    TMP DP  RH WIND       PRES   REMARKS
ALPENA         CLOUDY    33  27  78 SE10      30.08F WCI  25
BEAVER ISLAND  LGT RAIN  33  28  83 SE6       30.02S WCI  28
BELLAIRE       CLOUDY    38  21  49 S8        30.01R WCI  32
CADILLAC       CLOUDY    38  23  53 S10G18    29.98F WCI  31
CHARLEVOIX     LGT RAIN  36  24  62 SE3       30.05R
FRANKFORT      LGT RAIN  40  29  64 S9G18     29.97F WCI  34
GAYLORD        CLOUDY    35  21  56 S12G21    30.00F WCI  27
GRAYLING       CLOUDY    36  21  55 SE9       30.01F WCI  29
HARBOR SPRINGS CLOUDY    33  28  81 E6        30.03S WCI  27
HOUGHTON LAKE  CLOUDY    37  19  48 S15G22    30.04F WCI  28
MANISTEE       LGT RAIN  41  29  62 SE10G17   29.97F
OSCODA         CLOUDY    35  26  71 SE8       30.10F WCI  28
PELLSTON       CLOUDY    33  25  72 SE7       30.04F WCI  27
ROGERS CITY    MIX PCPN  33  25  73 SE13      30.06F WCI  24
TRAVERSE CITY  LGT RAIN  41  22  46 VRB6      29.98R
$$
MIZ007>008-015-240600-
EASTERN UPPER MICHIGAN

CITY           SKY/WX    TMP DP  RH WIND       PRES   REMARKS
KINROSS        MIX PCPN  32  28  85 SE14      30.04F WCI  22
MACKINAC ISLAN CLOUDY    32  24  72 SE12G18   30.02F WCI  23
NEWBERRY       MIX PCPN  31  29  90 SE5       30.02R WCI  26
S. S. MARIE    FRZ RAIN  33  27  78 SE6       30.06F WCI  28
MUNISING         N/A     33  30  88 S7        29.99R WCI  27
$$
MIZ004>006-011>014-085-240600-
CENTRAL UPPER MICHIGAN

CITY           SKY/WX    TMP DP  RH WIND       PRES   REMARKS
MANISTIQUE     LGT SNOW  32  32 100 S6        30.03R WCI  26
ESCANABA       LGT RAIN  33  32  96 N6        30.00S WCI  28
MENOMINEE        N/A    N/A N/A N/A MISG        N/A
SAWYER-GWINN   LGT SNOW  32  30  94 S10G17    29.95F WCI  23
$$
MIZ001>003-009>011-084-240600-
WESTERN UPPER MICHIGAN

CITY           SKY/WX    TMP DP  RH WIND       PRES   REMARKS
IRON MOUNTAIN  CLOUDY    32  27  81 CALM      29.93F
HOUGHTON       FRZ RAIN  33  29  85 S3        29.91S FOG
COPPER HARBOR    N/A     33  31  92 SW8       29.93F WCI  26
IRONWOOD       MIX PCPN  34  31  88 CALM      29.89S
$$

ABBREVIATIONS USED IN REMARKS
   TC - TEMPERATURE IN CELSIUS
  WCI - WIND CHILL INDEX
   HX - HEAT INDEX
  VSB - VISIBILITY




USA.gov is the U.S. government's official web portal to all federal, state and local government web resources and services.